Tracking 28799 objects as of 18-Apr-2024
HD Live streaming from Space Station
objects crossing your sky now

COSMOS 1275 DEB

Track COSMOS 1275 DEB now!
10-day predictions


NORAD ID: 42209
Int'l Code: 1981-053TZ
Perigee: 907.6 km
Apogee: 986.7 km
Inclination: 82.9 °
Period: 103.8 minutes
Semi major axis: 7318 km
RCS: Unknown
Launch date: June 4, 1981
Source: Commonwealth of Independent States (former USSR) (CIS)
Launch site: PLESETSK MISSILE AND SPACE COMPLEX (PKMTR)

Note: This is SATELLITE DEBRIS
Your satellite tracking list
Your tracking list is empty




NASA's NSSDC Master Catalog

Two Line Element Set (TLE):
1 42209U 81053TZ  24108.21105052  .00001747  00000-0  14696-2 0  9992
2 42209  82.8740 277.9377 0054047 330.7835  29.0307 13.86768052525930
Source of the keplerian elements: AFSPC